• In Latvia
  • List of Countries
  • For 7 days
  • Water Temperature
  • Satellite Maps
  • Weather Map
  • Weather Widgets
  • user-avatar
    Login

    Hourly Weather Klagenfurt

    Today, 25 March, Saturday

    Time Temperature Precipitation Wind Pressure Humidity
    00:00 +8°C° 0 mm 1 mps 695 mmHg 93%
    01:00 +8°C° 0 mm 1 mps 695 mmHg 95%
    02:00 +8°C° 0 mm 1 mps 695 mmHg 95%
    03:00 +7°C° 0 mm 1 mps 695 mmHg 96%
    04:00 +7°C° 0 mm 1 mps 694 mmHg 96%
    05:00 +7°C° 0 mm 1 mps 694 mmHg 95%
    06:00 +7°C° 0 mm 1 mps 695 mmHg 95%
    07:00 +7°C° 0 mm 1 mps 695 mmHg 94%
    08:00 +8°C° 0 mm 1 mps 695 mmHg 88%
    09:00 +9°C° 0 mm 1 mps 695 mmHg 82%
    10:00 +9°C° 0 mm 2 mps 695 mmHg 76%
    11:00 +10°C° 0 mm 2 mps 695 mmHg 73%
    12:00 +12°C° 0 mm 2 mps 694 mmHg 69%
    13:00 +13°C° 0 mm 2 mps 694 mmHg 66%
    14:00 +13°C° 0 mm 1 mps 694 mmHg 66%
    15:00 +12°C° 0 mm 1 mps 693 mmHg 67%
    16:00 +12°C° 0 mm 1 mps 693 mmHg 68%
    17:00 +11°C° 0 mm 1 mps 692 mmHg 75%
    18:00 +9°C° 0 mm 1 mps 692 mmHg 82%
    19:00 +7°C° 0 mm 1 mps 691 mmHg 88%
    20:00 +7°C° 0 mm 1 mps 691 mmHg 90%
    21:00 +6°C° 0 mm 1 mps 691 mmHg 91%
    22:00 +5°C° 0 mm 1 mps 691 mmHg 92%
    23:00 +5°C° 0 mm 1 mps 691 mmHg 92%

    Tomorrow, 26 March, Sunday

    Time Temperature Precipitation Wind Pressure Humidity
    00:00 +5°C° 0 mm 1 mps 691 mmHg 92%
    01:00 +5°C° 0 mm 1 mps 690 mmHg 92%
    02:00 +5°C° 0 mm 1 mps 690 mmHg 92%
    03:00 +5°C° 0 mm 1 mps 690 mmHg 92%
    04:00 +5°C° 0 mm 1 mps 689 mmHg 93%
    05:00 +5°C° 0 mm 1 mps 690 mmHg 92%
    06:00 +6°C° 0 mm 1 mps 690 mmHg 91%
    07:00 +6°C° 0 mm 1 mps 690 mmHg 91%
    08:00 +7°C° 0.1 mm 1 mps 690 mmHg 87%
    09:00 +7°C° 0.1 mm 2 mps 690 mmHg 83%
    10:00 +7°C° 0.1 mm 2 mps 691 mmHg 79%
    11:00 +7°C° 0.2 mm 2 mps 691 mmHg 79%
    12:00 +6°C° 0.2 mm 2 mps 691 mmHg 79%
    13:00 +6°C° 0.2 mm 2 mps 691 mmHg 79%
    14:00 +6°C° 0.2 mm 2 mps 691 mmHg 76%
    15:00 +5°C° 0.2 mm 3 mps 691 mmHg 73%
    16:00 +5°C° 0.2 mm 3 mps 691 mmHg 71%
    17:00 +5°C° 0 mm 2 mps 692 mmHg 74%
    18:00 +4°C° 0 mm 2 mps 692 mmHg 78%
    19:00 +2°C° 0 mm 2 mps 692 mmHg 82%
    20:00 +2°C° 0 mm 2 mps 693 mmHg 83%
    21:00 +1°C° 0 mm 2 mps 693 mmHg 84%
    22:00 +1°C° 0 mm 1 mps 693 mmHg 85%
    23:00 +1°C° 0 mm 1 mps 693 mmHg 86%

    Day after tomorrow, 27 March, Monday

    Time Temperature Precipitation Wind Pressure Humidity
    00:00 0°C° 0 mm 1 mps 693 mmHg 86%
    01:00 0°C° 0 mm 1 mps 693 mmHg 87%
    02:00 0°C° 0 mm 1 mps 693 mmHg 87%
    03:00 -1°C° 0 mm 1 mps 693 mmHg 87%
    04:00 -1°C° 0 mm 1 mps 693 mmHg 87%
    05:00 0°C° 0 mm 1 mps 694 mmHg 83%
    06:00 +1°C° 0 mm 1 mps 694 mmHg 79%
    07:00 +1°C° 0 mm 1 mps 694 mmHg 75%
    08:00 +3°C° 0 mm 1 mps 695 mmHg 66%
    09:00 +6°C° 0 mm 1 mps 695 mmHg 56%
    10:00 +7°C° 0 mm 2 mps 695 mmHg 46%
    11:00 +8°C° 0 mm 2 mps 695 mmHg 43%
    12:00 +9°C° 0 mm 2 mps 695 mmHg 40%
    13:00 +10°C° 0 mm 2 mps 695 mmHg 37%
    14:00 +9°C° 0 mm 2 mps 695 mmHg 39%
    15:00 +9°C° 0 mm 2 mps 695 mmHg 41%
    16:00 +9°C° 0 mm 2 mps 695 mmHg 43%
    17:00 +6°C° 0 mm 2 mps 694 mmHg 55%
    18:00 +4°C° 0 mm 1 mps 694 mmHg 67%
    19:00 +2°C° 0 mm 1 mps 694 mmHg 79%
    20:00 +1°C° 0 mm 1 mps 694 mmHg 81%
    21:00 +1°C° 0 mm 1 mps 694 mmHg 82%
    22:00 0°C° 0 mm 1 mps 694 mmHg 83%
    23:00 0°C° 0 mm 1 mps 694 mmHg 83%

    28 March, Tuesday

    Time Temperature Precipitation Wind Pressure Humidity
    00:00 0°C° 0 mm 1 mps 694 mmHg 83%
    01:00 0°C° 0 mm 1 mps 694 mmHg 83%
    02:00 -1°C° 0 mm 0 mps 694 mmHg 82%
    03:00 -1°C° 0 mm 0 mps 694 mmHg 81%
    04:00 -1°C° 0 mm 0 mps 694 mmHg 80%
    05:00 0°C° 0 mm 0 mps 694 mmHg 75%
    06:00 +1°C° 0 mm 0 mps 694 mmHg 70%
    07:00 +2°C° 0 mm 0 mps 695 mmHg 65%
    08:00 +6°C° 0 mm 1 mps 695 mmHg 54%
    09:00 +9°C° 0 mm 1 mps 696 mmHg 44%
    10:00 +11°C° 0 mm 1 mps 696 mmHg 34%
    11:00 +13°C° 0 mm 1 mps 696 mmHg 33%
    12:00 +14°C° 0 mm 1 mps 696 mmHg 33%
    13:00 +15°C° 0 mm 1 mps 696 mmHg 32%
    14:00 +14°C° 0 mm 1 mps 696 mmHg 35%
    15:00 +14°C° 0 mm 1 mps 695 mmHg 38%
    16:00 +14°C° 0 mm 1 mps 695 mmHg 42%
    17:00 +10°C° 0 mm 1 mps 695 mmHg 55%
    18:00 +7°C° 0 mm 1 mps 694 mmHg 69%
    19:00 +3°C° 0 mm 1 mps 693 mmHg 82%
    20:00 +3°C° 0 mm 1 mps 693 mmHg 83%
    21:00 +1°C° 0 mm 0 mps 694 mmHg 84%
    22:00 +1°C° 0 mm 0 mps 694 mmHg 85%
    23:00 +1°C° 0 mm 0 mps 694 mmHg 85%

    29 March, Wednesday

    Time Temperature Precipitation Wind Pressure Humidity
    00:00 +1°C° 0 mm 0 mps 694 mmHg 85%
    01:00 +1°C° 0 mm 0 mps 694 mmHg 85%
    02:00 +2°C° 0 mm 1 mps 694 mmHg 85%
    03:00 +2°C° 0 mm 1 mps 694 mmHg 85%
    04:00 +2°C° 0 mm 1 mps 694 mmHg 85%
    05:00 +3°C° 0 mm 1 mps 694 mmHg 82%
    06:00 +4°C° 0 mm 1 mps 694 mmHg 79%
    07:00 +5°C° 0 mm 1 mps 695 mmHg 76%
    08:00 +8°C° 0 mm 1 mps 695 mmHg 67%
    09:00 +11°C° 0 mm 1 mps 696 mmHg 57%
    10:00 +14°C° 0 mm 1 mps 696 mmHg 47%
    11:00 +15°C° 0 mm 1 mps 696 mmHg 44%
    12:00 +16°C° 0 mm 1 mps 696 mmHg 41%
    13:00 +18°C° 0 mm 1 mps 696 mmHg 39%
    14:00 +16°C° 0 mm 1 mps 695 mmHg 41%
    15:00 +16°C° 0 mm 1 mps 695 mmHg 43%
    16:00 +16°C° 0 mm 1 mps 695 mmHg 45%
    17:00 +12°C° 0 mm 1 mps 694 mmHg 57%
    18:00 +9°C° 0 mm 1 mps 694 mmHg 69%
    19:00 +6°C° 0 mm 1 mps 693 mmHg 82%
    20:00 +4°C° 0 mm 0 mps 693 mmHg 83%
    21:00 +4°C° 0 mm 0 mps 693 mmHg 84%
    22:00 +3°C° 0 mm 0 mps 693 mmHg 85%
    23:00 +3°C° 0 mm 0 mps 693 mmHg 85%

    30 March, Thursday

    Time Temperature Precipitation Wind Pressure Humidity
    00:00 +3°C° 0 mm 0 mps 693 mmHg 86%
    01:00 +4°C° 0 mm 1 mps 693 mmHg 87%
    02:00 +3°C° 0 mm 1 mps 693 mmHg 87%
    03:00 +3°C° 0 mm 1 mps 693 mmHg 87%
    04:00 +3°C° 0 mm 1 mps 693 mmHg 88%
    05:00 +4°C° 0 mm 1 mps 693 mmHg 85%
    06:00 +5°C° 0 mm 1 mps 694 mmHg 82%
    07:00 +6°C° 0 mm 1 mps 694 mmHg 79%
    08:00 +9°C° 0 mm 1 mps 695 mmHg 69%
    09:00 +12°C° 0 mm 1 mps 695 mmHg 59%
    10:00 +15°C° 0 mm 1 mps 696 mmHg 49%
    11:00 +15°C° 0 mm 1 mps 696 mmHg 46%
    12:00 +16°C° 0 mm 1 mps 696 mmHg 43%
    13:00 +18°C° 0 mm 1 mps 696 mmHg 40%
    14:00 +18°C° 0 mm 1 mps 695 mmHg 42%
    15:00 +18°C° 0 mm 1 mps 695 mmHg 43%
    16:00 +16°C° 0 mm 1 mps 695 mmHg 45%
    17:00 +13°C° 0 mm 1 mps 694 mmHg 58%
    18:00 +10°C° 0 mm 1 mps 694 mmHg 71%
    19:00 +7°C° 0 mm 1 mps 693 mmHg 85%
    20:00 +6°C° 0 mm 1 mps 693 mmHg 86%
    21:00 +6°C° 0 mm 1 mps 694 mmHg 88%
    22:00 +4°C° 0 mm 0 mps 694 mmHg 90%
    23:00 +4°C° 0 mm 0 mps 694 mmHg 90%
    Show more